COSMOS 1610

Satellite information

Favourite Embed

Satellite Type and Status

PAYLOADIN ORBIT

Key statistics

Satellite COSMOS 1610 at a glance.

Uptime

14905

Days in orbit

Revolutions

≈ 13.7

Per day

Orbit

LEO

Low Earth Orbit

Inclination

83.0

Latest

Satellite identification and parameters

Extended collection of information and parameters for COSMOS 1610.

Object identification

Identified? True

Debris? False

Object name: COSMOS 1610

International designator: 1984-118A

Object number (NORAD): 15398

Object ID (CCSDS): 15398

Country: COMMONWEALTH OF INDEPENDENT STATES (CIS)

Current information (Y/N): Y

RCS size: LARGE

Orbital parameters

Period: 104.809 minutes

Inclination: 82.9537 deg

SMA: 7363.641 km

Apoapsis: 1008.452 km

Periapsis: 962.56 km

RAAN: 344.7532 deg

Eccentricy: 0.00311606

Argument of periapsis: 213.6837 deg

Mean anomaly: 164.8971 deg

Mean motion: 13.73927625 rev/day

Mean motion (dot): 0.00000071 rev/day2

B* drag term: 0.000059977232 1/REarth

Two-line elements (TLE)

Creation date: Sept. 4, 2025, 10:13 a.m.

Reference frame: TEME

Reference center: EARTH

Epoch: Sept. 4, 2025, 6:02 a.m. UTC

TLE line 0: 0 COSMOS 1610

TLE line 1: 1 15398U 84118A 25247.25172584 .00000071 00000-0 59977-4 0 9991

TLE line 2: 2 15398 82.9537 344.7532 0031161 213.6837 164.8971 13.73927625 45619

Live tracking on map

Real-time ground track for satellite COSMOS 1610.

In-orbit conjunctions

A list of the most updated potential collisions computed for object COSMOS 1610.

Target Orbit TCA Probability of collision Miss distance Type
FENGYUN 1C DEB SSO 2024-09-13 05:09:47 0.0002618329 803.0 (m) DEBRIS

Associated space launch

Navigation satellite providing location information for the Tsiklon-B navigation system

COSMOS 1610 was lifted into orbit during the mission ‘Kosmos-3M | Parus 47’, on board a Kosmos-3M space rocket.

The launch took place on Nov. 15, 1984, 6:40 a.m. from 132/1 (132L).

For more information about the launch, click the button.

Launch to space Kosmos-3M | Parus 47
Kosmos-3M | Parus 47

Agency: N/A

Status: Launch Successful

Launch date: Nov. 15, 1984, 6:40 a.m. UTC

Rocket: Kosmos-3M

Launch pad: 132/1 (132L)

Location: Plesetsk Cosmodrome, Russian Federation

...

Latest news about this satellite

There are no fresh news available about this satellite. Check back as we update our databases every day.


Newsletter sign-up

Weekly statistics, charts and insights to help you stay on top of the space industry.